Погода Викулово

Погода Викулово : погода сейчас, прогноз погоды и архив. Всё, что Вы хотите узнать о погоде Викулово!

Поиск расширенной информации на нашем сайте:

Другие новости

Новости СМИ2

Главная страница сайта

Новости сайта

03.07.2017

Напоминаем, что на нашем специализированном сайте Метеоцентр.Азия вы можете получить высокодетализированные автоматические прогнозы погоды по пунктам России, СНГ и мира в авиационном формате (включающие направление и скорость ветра, видимость, явления погоды, количество и форму облачности, нижнюю и верхнюю границу облачности).

Рекомендуем: Купить природный камень песчаник в москве пластушка камень песчаник купить.

Погода Викулово - сегодня

Время (UTC), дата Ветер
(°,м/с) 
Видим.   Явления Облачность Т
(°С)
Тd
(°С)
f(%) Тe
(°С)
Pmin
(гПа)
dP
(гПа)
Po
(мм)
O2
(г/м3)
Тmin Tmax R s Состояние
почвы
03 22.11.17 180 (Ю) 20000 м    10/0 верхняя 
[Ci fib]
-3.6 -7.8 73 -6  1027.3  -0.7  763  312  -3.8      равномерный
сухой снег
100% 
06 22.11.17 170 (Ю) 20000 м    9/0 верхняя 
[Ci sp]
-2.7 -8 67 -5  1027  -0.2  763  311  -3.8         
09 22.11.17 170 (Ю) 20000 м    10/0 верхняя 
[Ci sp]
+0.3 -7 58 -1  1026.3  -0.6  762  308           
12 22.11.17 170 (Ю) 10 км    3/0 верхняя 
[Ci sp]
-1.9 -7.3 67 -4  1026  -0.3  762  310           
15 22.11.17 180 (Ю) 10 км    5/0 верхняя 
[Cs]
-2.8 -7.5 70 -4  1025.7  -0.3  762  311    +0.3       
18 22.11.17 170 (Ю) 10 км    ясно 
-3.4 -7.4 74 -5  1025.2  -0.5  761  311           
21 22.11.17 180 (Ю) 10 км    ясно 
-4.1 -7.7 76 -5  1025  -0.3  761  312           
00 23.11.17 180 (Ю) 10 км    ясно 
-4.2 -7.8 76 -5  1025.1  -0.1  761  312           
03 23.11.17 180 (Ю) 20000 м    3/0 средняя 
[Ac trans]
-5.9 -8.9 79 -7  1025.3  0.1  761  314  -5.9      равномерный
сухой снег
100% 
06 23.11.17 170 (Ю) 20000 м    3/0 верхняя 
[Ci sp]
-3.3 -8.3 68 -4  1025.7  0.6  762  312  -6.2         
09 23.11.17 170 (Ю) 20000 м    ясно 
-0.8 -7.3 61 -3  1025.6  762  309           
12 23.11.17 190 (Ю) 10 км    ясно 
-1.2 -7.2 64 -2  1025.6  0.1  762  309           
15 23.11.17 180 (Ю) 10 км    ясно 
-0.7 -8.4 56 -3  1025.3  -0.3  762  309    -0.4       
18 23.11.17 180 (Ю) 10 км    ясно 
-1.5 -9.5 54 -3  1025.3  762  310           
21 23.11.17 180 (Ю) 10 км    ясно 
-2.5 -10.2 55 -5  1024.9  -0.4  761  311           
00 24.11.17 190 (Ю) 10 км    ясно 
-4.4 -10.2 64 -6  1024.6  -0.4  761  313           
03 24.11.17 190 (Ю) 20000 м    ясно 
-5.1 -9.6 71 -6  1023.6  -1  760  313  -5.2      равномерный
сухой снег
100% 
06 24.11.17 180 (Ю) 20000 м    ясно 
-1.7 -9.8 54 -4  1022.6  -0.9  760  309           
09 24.11.17 190 (Ю) 20000 м    ясно 
+1.8 -9.6 42 +1  1021.5  -0.9  759  305           
12 24.11.17 170 (Ю) 20000 м    ясно 
-0.3 -8.7 53 -2  1020  -1.6  758  307           
15 24.11.17 190 (Ю) 20000 м    ясно 
-2.9 -9.4 61 -4  1019  -1  757  309    +2.1       
18 24.11.17 180 (Ю) 20000 м    ясно 
-4.9 -9.8 68 -4  1018.3  -0.8  756  311           
21 24.11.17 190 (Ю) 20000 м    ясно 
-6.8 -10.3 76 -8  1017.8  -0.5  756  313           
00 25.11.17 280 (З) 20000 м    ясно 
-8.8 -11 84 -10  1017.6  -0.4  756  316           
03 25.11.17 340 (С) 10 км    3/0 верхняя 
[Cs]
-8.1 -9.9 87 -11  1018.5  0.9  756  315  -9.1      равномерный
сухой снег
100% 
Время (UTC), дата Ветер
(°,м/с) 
Видим.   Явления Облачность Т
(°С)
Тd
(°С)
f(%) Тe
(°С)
Pmin
(гПа)
dP
(гПа)
Po
(мм)
O2
(г/м3)
Тmin Tmax R s Состояние
почвы

Для получения пояснительной информации подведите курсор к названию столбца.

ПОГОДА Викулово - архив

Всё, что Вы хотите узнать о погоде Викулово - удобно и подробно!

Выберите нужную дату (начиная с 1 января 2015* года) и нажмите кнопку "Найти".
Будут отображены архивные сводки погоды по пункту Викулово, начиная с указанной даты.


Отображать данные в формате CSV (для использования в таблицах Excel)


Внимание! Наш архив погоды предназначен исключительно для личного некоммерческого использования в познавательных целях. Если Вам необходимы официальные справки о состоянии погоды (для производственных, юридических, коммерческих и т.п. целей), обращайтесь в органы Росгидромета.

*Примечание: данная дата относится к архиву по метеостанциям СССР (Россия, СНГ, Балтия).
Архив по метеостанциям Зарубежной Европы и Азии (кроме Китая) хранится 10 дней, по другим регионам земного шара (Китай, Африка, Америка, Австралия, Океания) - 1 день.

Викулово - район местоположения метеостанции


Название, широта, долгота, высота метеостанции:
Викулово 56.8°ш. 70.6°д. 78 м над ур. моря [Российская Федерация]

Дополнительная информация

В oтличие oт бoльшинства пoгoдных сайтoв мы публикуем пoдрoбную метеoинфoрмацию в детальнoм прoфессиoнальнoм фoрмате.

Характеристики температуры и влажнoсти вoздуха измеряются на высoте 2 м в тени вдали oт зданий и деревьев.
Скoрoсть ветра измеряется на высoте 10 м (на урoвне рoста челoвека скoрoсть ветра ниже в 1.5-2 раза). Если метеoстанция нахoдится в гoрoде или в лесу, тo скoрoсть ветра занижена на 2-4 м/с пo сравнению с oткрытым местoм. Скoрoсть ветра над акватoриями крупных рек и oзёр, а также на вершинах хoлмoв на 2-5 м/с выше, чем в oбычных услoвиях.
Атмoсфернoе давление в разных тoчках местнoсти мoжет значительнo oтличаться oт давления на метеoстанции, в зависимoсти oт услoвий рельефа (при пoдъёме на 10 м давление пoнижается примернo на 1 мм рт.ст.).